Year,Month,Day,Hour,Minute,Value (Times are PST for temperature in C)
2015,09,24,00,00,10.70
2015,09,24,00,01,10.70
2015,09,24,00,02,10.70
2015,09,24,00,03,10.70
2015,09,24,00,04,10.70
2015,09,24,00,05,10.70
2015,09,24,00,06,10.70
2015,09,24,00,07,10.70
2015,09,24,00,08,10.70
2015,09,24,00,09,10.70
2015,09,24,00,10,10.70
2015,09,24,00,11,10.70
2015,09,24,00,12,10.60
2015,09,24,00,13,10.60
2015,09,24,00,14,10.60
2015,09,24,00,15,10.60
2015,09,24,00,16,10.70
2015,09,24,00,17,10.70
2015,09,24,00,18,10.70
2015,09,24,00,19,10.70
2015,09,24,00,20,10.70
2015,09,24,00,21,10.70
2015,09,24,00,22,10.70
2015,09,24,00,23,10.70
2015,09,24,00,24,10.70
2015,09,24,00,25,10.70
2015,09,24,00,26,10.80
2015,09,24,00,27,10.80
2015,09,24,00,28,10.80
2015,09,24,00,29,10.80
2015,09,24,00,30,10.80
2015,09,24,00,31,10.80
2015,09,24,00,32,10.80
2015,09,24,00,33,10.80
2015,09,24,00,34,10.80
2015,09,24,00,35,10.80
2015,09,24,00,36,10.70
2015,09,24,00,37,10.70
2015,09,24,00,38,10.70
2015,09,24,00,39,10.70
2015,09,24,00,40,10.70
2015,09,24,00,41,10.70
2015,09,24,00,42,10.70
2015,09,24,00,43,10.70
2015,09,24,00,44,10.80
2015,09,24,00,45,10.80
2015,09,24,00,46,10.80
2015,09,24,00,47,10.80
2015,09,24,00,48,10.80
2015,09,24,00,49,10.90
2015,09,24,00,50,10.90
2015,09,24,00,51,10.90
2015,09,24,00,52,10.90
2015,09,24,00,53,10.90
2015,09,24,00,54,10.90
2015,09,24,00,55,10.80
2015,09,24,00,56,10.80
2015,09,24,00,57,10.80
2015,09,24,00,58,10.80
2015,09,24,00,59,10.80
2015,09,24,01,00,10.80
2015,09,24,01,01,10.80
2015,09,24,01,02,10.80
2015,09,24,01,03,10.80
2015,09,24,01,04,10.80
2015,09,24,01,05,10.80
2015,09,24,01,06,10.80
2015,09,24,01,07,10.80
2015,09,24,01,08,10.80
2015,09,24,01,09,10.80
2015,09,24,01,10,10.80
2015,09,24,01,11,10.80
2015,09,24,01,12,10.70
2015,09,24,01,13,10.70
2015,09,24,01,14,10.70
2015,09,24,01,15,10.70
2015,09,24,01,16,10.70
2015,09,24,01,17,10.70
2015,09,24,01,18,10.70
2015,09,24,01,19,10.70
2015,09,24,01,20,10.70
2015,09,24,01,21,10.70
2015,09,24,01,22,10.70
2015,09,24,01,23,10.70
2015,09,24,01,24,10.70
2015,09,24,01,25,10.70
2015,09,24,01,26,10.70
2015,09,24,01,27,10.70
2015,09,24,01,28,10.70
2015,09,24,01,29,10.60
2015,09,24,01,30,10.60
2015,09,24,01,31,10.60
2015,09,24,01,32,10.60
2015,09,24,01,33,10.60
2015,09,24,01,34,10.60
2015,09,24,01,35,10.60
2015,09,24,01,36,10.60
2015,09,24,01,37,10.60
2015,09,24,01,38,10.60
2015,09,24,01,39,10.50
2015,09,24,01,40,10.40
2015,09,24,01,41,10.40
2015,09,24,01,42,10.40
2015,09,24,01,43,10.40
2015,09,24,01,44,10.40
2015,09,24,01,45,10.40
2015,09,24,01,46,10.40
2015,09,24,01,47,10.40
2015,09,24,01,48,10.40
2015,09,24,01,49,10.40
2015,09,24,01,50,10.40
2015,09,24,01,51,10.30
2015,09,24,01,52,10.30
2015,09,24,01,53,10.30
2015,09,24,01,54,10.30
2015,09,24,01,55,10.30
2015,09,24,01,56,10.30
2015,09,24,01,57,10.30
2015,09,24,01,58,10.20
2015,09,24,01,59,10.20
2015,09,24,02,00,10.20
2015,09,24,02,01,10.20
2015,09,24,02,02,10.20
2015,09,24,02,03,10.20
2015,09,24,02,04,10.20
2015,09,24,02,05,10.20
2015,09,24,02,06,10.20
2015,09,24,02,07,10.20
2015,09,24,02,08,10.20
2015,09,24,02,09,10.20
2015,09,24,02,10,10.20
2015,09,24,02,11,10.20
2015,09,24,02,12,10.30
2015,09,24,02,13,10.30
2015,09,24,02,14,10.40
2015,09,24,02,15,10.40
2015,09,24,02,16,10.40
2015,09,24,02,17,10.40
2015,09,24,02,18,10.50
2015,09,24,02,19,10.60
2015,09,24,02,20,10.60
2015,09,24,02,21,10.60
2015,09,24,02,22,10.60
2015,09,24,02,23,10.60
2015,09,24,02,24,10.60
2015,09,24,02,25,10.60
2015,09,24,02,26,10.60
2015,09,24,02,27,10.60
2015,09,24,02,28,10.60
2015,09,24,02,29,10.60
2015,09,24,02,30,10.60
2015,09,24,02,31,10.60
2015,09,24,02,32,10.60
2015,09,24,02,33,10.60
2015,09,24,02,34,10.60
2015,09,24,02,35,10.60
2015,09,24,02,36,10.60
2015,09,24,02,37,10.60
2015,09,24,02,38,10.60
2015,09,24,02,39,10.60
2015,09,24,02,40,10.60
2015,09,24,02,41,10.60
2015,09,24,02,42,10.60
2015,09,24,02,43,10.60
2015,09,24,02,44,10.60
2015,09,24,02,45,10.60
2015,09,24,02,46,10.60
2015,09,24,02,47,10.60
2015,09,24,02,48,10.60
2015,09,24,02,49,10.60
2015,09,24,02,50,10.60
2015,09,24,02,51,10.50
2015,09,24,02,52,10.40
2015,09,24,02,53,10.40
2015,09,24,02,54,10.40
2015,09,24,02,55,10.40
2015,09,24,02,56,10.40
2015,09,24,02,57,10.40
2015,09,24,02,58,10.40
2015,09,24,02,59,10.40
2015,09,24,03,00,10.40
2015,09,24,03,01,10.40
2015,09,24,03,02,10.40
2015,09,24,03,03,10.40
2015,09,24,03,04,10.40
2015,09,24,03,05,10.40
2015,09,24,03,06,10.40
2015,09,24,03,07,10.40
2015,09,24,03,08,10.40
2015,09,24,03,09,10.40
2015,09,24,03,10,10.40
2015,09,24,03,11,10.40
2015,09,24,03,12,10.40
2015,09,24,03,13,10.40
2015,09,24,03,14,10.40
2015,09,24,03,15,10.30
2015,09,24,03,16,10.30
2015,09,24,03,17,10.30
2015,09,24,03,18,10.30
2015,09,24,03,19,10.30
2015,09,24,03,20,10.30
2015,09,24,03,21,10.30
2015,09,24,03,22,10.30
2015,09,24,03,23,10.30
2015,09,24,03,24,10.30
2015,09,24,03,25,10.30
2015,09,24,03,26,10.30
2015,09,24,03,27,10.30
2015,09,24,03,28,10.30
2015,09,24,03,29,10.30
2015,09,24,03,30,10.30
2015,09,24,03,31,10.30
2015,09,24,03,32,10.30
2015,09,24,03,33,10.30
2015,09,24,03,34,10.30
2015,09,24,03,35,10.30
2015,09,24,03,36,10.30
2015,09,24,03,37,10.30
2015,09,24,03,38,10.30
2015,09,24,03,39,10.30
2015,09,24,03,40,10.30
2015,09,24,03,41,10.30
2015,09,24,03,42,10.40
2015,09,24,03,43,10.40
2015,09,24,03,44,10.40
2015,09,24,03,45,10.40
2015,09,24,03,46,10.40
2015,09,24,03,47,10.40
2015,09,24,03,48,10.40
2015,09,24,03,49,10.50
2015,09,24,03,50,10.60
2015,09,24,03,51,10.60
2015,09,24,03,52,10.60
2015,09,24,03,53,10.60
2015,09,24,03,54,10.60
2015,09,24,03,55,10.60
2015,09,24,03,56,10.70
2015,09,24,03,57,10.70
2015,09,24,03,58,10.70
2015,09,24,03,59,10.70
2015,09,24,04,00,10.70
2015,09,24,04,01,10.80
2015,09,24,04,02,10.80
2015,09,24,04,03,10.80
2015,09,24,04,04,10.80
2015,09,24,04,05,10.80
2015,09,24,04,06,10.80
2015,09,24,04,07,10.80
2015,09,24,04,08,10.90
2015,09,24,04,09,10.90
2015,09,24,04,10,10.90
2015,09,24,04,11,10.90
2015,09,24,04,12,10.90
2015,09,24,04,13,10.90
2015,09,24,04,14,10.90
2015,09,24,04,15,10.90
2015,09,24,04,16,10.90
2015,09,24,04,17,10.90
2015,09,24,04,18,10.90
2015,09,24,04,19,10.90
2015,09,24,04,20,10.90
2015,09,24,04,21,10.90
2015,09,24,04,22,10.90
2015,09,24,04,23,10.90
2015,09,24,04,24,10.90
2015,09,24,04,25,10.90
2015,09,24,04,26,10.90
2015,09,24,04,27,10.90
2015,09,24,04,28,11.00
2015,09,24,04,29,11.10
2015,09,24,04,30,11.10
2015,09,24,04,31,11.10
2015,09,24,04,32,11.10
2015,09,24,04,33,11.10
2015,09,24,04,34,11.10
2015,09,24,04,35,11.10
2015,09,24,04,36,11.10
2015,09,24,04,37,11.10
2015,09,24,04,38,11.10
2015,09,24,04,39,11.10
2015,09,24,04,40,11.10
2015,09,24,04,41,11.10
2015,09,24,04,42,11.10
2015,09,24,04,43,11.10
2015,09,24,04,44,11.10
2015,09,24,04,45,11.10
2015,09,24,04,46,11.10
2015,09,24,04,47,11.10
2015,09,24,04,48,11.10
2015,09,24,04,49,11.10
2015,09,24,04,50,11.10
2015,09,24,04,51,11.10
2015,09,24,04,52,11.20
2015,09,24,04,53,11.20
2015,09,24,04,54,11.20
2015,09,24,04,55,11.20
2015,09,24,04,56,11.20
2015,09,24,04,57,11.20
2015,09,24,04,58,11.20
2015,09,24,04,59,11.20
2015,09,24,05,00,11.20
2015,09,24,05,01,11.20
2015,09,24,05,02,11.20
2015,09,24,05,03,11.20
2015,09,24,05,04,11.20
2015,09,24,05,05,11.20
2015,09,24,05,06,11.20
2015,09,24,05,07,11.20
2015,09,24,05,08,11.20
2015,09,24,05,09,11.20
2015,09,24,05,10,11.20
2015,09,24,05,11,11.20
2015,09,24,05,12,11.20
2015,09,24,05,13,11.20
2015,09,24,05,14,11.20
2015,09,24,05,15,11.20
2015,09,24,05,16,11.20
2015,09,24,05,17,11.10
2015,09,24,05,18,11.10
2015,09,24,05,19,11.10
2015,09,24,05,20,11.10
2015,09,24,05,21,11.10
2015,09,24,05,22,11.10
2015,09,24,05,23,11.10
2015,09,24,05,24,11.10
2015,09,24,05,25,11.10
2015,09,24,05,26,11.10
2015,09,24,05,27,11.10
2015,09,24,05,28,11.10
2015,09,24,05,29,11.10
2015,09,24,05,30,11.10
2015,09,24,05,31,11.10
2015,09,24,05,32,11.10
2015,09,24,05,33,11.10
2015,09,24,05,34,11.10
2015,09,24,05,35,11.10
2015,09,24,05,36,11.10
2015,09,24,05,37,11.10
2015,09,24,05,38,11.00
2015,09,24,05,39,10.90
2015,09,24,05,40,10.90
2015,09,24,05,41,10.90
2015,09,24,05,42,10.90
2015,09,24,05,43,10.90
2015,09,24,05,44,10.90
2015,09,24,05,45,10.90
2015,09,24,05,46,10.90
2015,09,24,05,47,10.90
2015,09,24,05,48,10.90
2015,09,24,05,49,10.90
2015,09,24,05,50,10.90
2015,09,24,05,51,10.90
2015,09,24,05,52,10.90
2015,09,24,05,53,10.90
2015,09,24,05,54,10.90
2015,09,24,05,55,10.90
2015,09,24,05,56,10.90
2015,09,24,05,57,10.90
2015,09,24,05,58,10.90
2015,09,24,05,59,10.90
2015,09,24,06,00,10.90
2015,09,24,06,01,10.90
2015,09,24,06,02,10.90
2015,09,24,06,03,10.90
2015,09,24,06,04,10.90
2015,09,24,06,05,10.90
2015,09,24,06,06,10.90
2015,09,24,06,07,10.90
2015,09,24,06,08,10.90
2015,09,24,06,09,10.90
2015,09,24,06,10,10.90
2015,09,24,06,11,11.10
2015,09,24,06,12,11.10
2015,09,24,06,13,11.10
2015,09,24,06,14,11.10
2015,09,24,06,15,11.10
2015,09,24,06,16,11.10
2015,09,24,06,17,11.10
2015,09,24,06,18,11.10
2015,09,24,06,19,11.10
2015,09,24,06,20,11.10
2015,09,24,06,21,11.20
2015,09,24,06,22,11.20
2015,09,24,06,23,11.20
2015,09,24,06,24,11.20
2015,09,24,06,25,11.30
2015,09,24,06,26,11.30
2015,09,24,06,27,11.30
2015,09,24,06,28,11.30
2015,09,24,06,29,11.30
2015,09,24,06,30,11.30
2015,09,24,06,31,11.30
2015,09,24,06,32,11.30
2015,09,24,06,33,11.40
2015,09,24,06,34,11.40
2015,09,24,06,35,11.40
2015,09,24,06,36,11.40
2015,09,24,06,37,11.50
2015,09,24,06,38,11.60
2015,09,24,06,39,11.60
2015,09,24,06,40,11.60
2015,09,24,06,41,11.60
2015,09,24,06,42,11.60
2015,09,24,06,43,11.60
2015,09,24,06,44,11.60
2015,09,24,06,45,11.60
2015,09,24,06,46,11.60
2015,09,24,06,47,11.60
2015,09,24,06,48,11.60
2015,09,24,06,49,11.70
2015,09,24,06,50,11.70
2015,09,24,06,51,11.70
2015,09,24,06,52,11.70
2015,09,24,06,53,11.70
2015,09,24,06,54,11.70
2015,09,24,06,55,11.80
2015,09,24,06,56,11.80
2015,09,24,06,57,11.80
2015,09,24,06,58,11.80
2015,09,24,06,59,11.80
2015,09,24,07,00,11.70
2015,09,24,07,01,11.70
2015,09,24,07,02,11.70
2015,09,24,07,03,11.70
2015,09,24,07,04,11.70
2015,09,24,07,05,11.70
2015,09,24,07,06,11.70
2015,09,24,07,07,11.70
2015,09,24,07,08,11.70
2015,09,24,07,09,11.80
2015,09,24,07,10,11.80
2015,09,24,07,11,11.80
2015,09,24,07,12,11.80
2015,09,24,07,13,11.80
2015,09,24,07,14,11.70
2015,09,24,07,15,11.70
2015,09,24,07,16,11.70
2015,09,24,07,17,11.70
2015,09,24,07,18,11.70
2015,09,24,07,19,11.70
2015,09,24,07,20,11.70
2015,09,24,07,21,11.70
2015,09,24,07,22,11.70
2015,09,24,07,23,11.60
2015,09,24,07,24,11.60
2015,09,24,07,25,11.60
2015,09,24,07,26,11.60
2015,09,24,07,27,11.60
2015,09,24,07,28,11.60
2015,09,24,07,29,11.60
2015,09,24,07,30,11.60
2015,09,24,07,31,11.60
2015,09,24,07,32,11.60
2015,09,24,07,33,11.60
2015,09,24,07,34,11.60
2015,09,24,07,35,11.60
2015,09,24,07,36,11.60
2015,09,24,07,37,11.60
2015,09,24,07,38,11.60
2015,09,24,07,39,11.60
2015,09,24,07,40,11.60
2015,09,24,07,41,11.60
2015,09,24,07,42,11.60
2015,09,24,07,43,11.60
2015,09,24,07,44,11.60
2015,09,24,07,45,11.60
2015,09,24,07,46,11.60
2015,09,24,07,47,11.60
2015,09,24,07,48,11.60
2015,09,24,07,49,11.60
2015,09,24,07,50,11.60
2015,09,24,07,51,11.60
2015,09,24,07,52,11.60
2015,09,24,07,53,11.60
2015,09,24,07,54,11.60
2015,09,24,07,55,11.60
2015,09,24,07,56,11.60
2015,09,24,07,57,11.60
2015,09,24,07,58,11.60
2015,09,24,07,59,11.60
2015,09,24,08,00,11.60
2015,09,24,08,01,11.60
2015,09,24,08,02,11.60
2015,09,24,08,03,11.60
2015,09,24,08,04,11.60
2015,09,24,08,05,11.60
2015,09,24,08,06,11.60
2015,09,24,08,07,11.60
2015,09,24,08,08,11.70
2015,09,24,08,09,11.70
2015,09,24,08,10,11.70
2015,09,24,08,11,11.80
2015,09,24,08,12,11.80
2015,09,24,08,13,11.80
2015,09,24,08,14,11.80
2015,09,24,08,15,11.80
2015,09,24,08,16,11.80
2015,09,24,08,17,11.90
2015,09,24,08,18,11.90
2015,09,24,08,19,11.90
2015,09,24,08,20,11.90
2015,09,24,08,21,12.00
2015,09,24,08,22,12.00
2015,09,24,08,23,12.00
2015,09,24,08,24,12.00
2015,09,24,08,25,12.10
2015,09,24,08,26,12.10
2015,09,24,08,27,12.10
2015,09,24,08,28,12.20
2015,09,24,08,29,12.30
2015,09,24,08,30,12.30
2015,09,24,08,31,12.30
2015,09,24,08,32,12.30
2015,09,24,08,33,12.30
2015,09,24,08,34,12.40
2015,09,24,08,35,12.40
2015,09,24,08,36,12.40
2015,09,24,08,37,12.40
2015,09,24,08,38,12.40
2015,09,24,08,39,12.40
2015,09,24,08,40,12.40
2015,09,24,08,41,12.40
2015,09,24,08,42,12.50
2015,09,24,08,43,12.50
2015,09,24,08,44,12.50
2015,09,24,08,45,12.50
2015,09,24,08,46,12.50
2015,09,24,08,47,12.50
2015,09,24,08,48,12.50
2015,09,24,08,49,12.50
2015,09,24,08,50,12.50
2015,09,24,08,51,12.50
2015,09,24,08,52,12.60
2015,09,24,08,53,12.50
2015,09,24,08,54,12.50
2015,09,24,08,55,12.50
2015,09,24,08,56,12.50
2015,09,24,08,57,12.50
2015,09,24,08,58,12.50
2015,09,24,08,59,12.60
2015,09,24,09,00,12.60
2015,09,24,09,01,12.60
2015,09,24,09,02,12.60
2015,09,24,09,03,12.60
2015,09,24,09,04,12.60
2015,09,24,09,05,12.70
2015,09,24,09,06,12.70
2015,09,24,09,07,12.70
2015,09,24,09,08,12.70
2015,09,24,09,09,12.70
2015,09,24,09,10,12.80
2015,09,24,09,11,12.80
2015,09,24,09,12,12.80
2015,09,24,09,13,12.80
2015,09,24,09,14,12.80
2015,09,24,09,15,12.80
2015,09,24,09,16,12.80
2015,09,24,09,17,12.80
2015,09,24,09,18,12.80
2015,09,24,09,19,12.80
2015,09,24,09,20,12.80
2015,09,24,09,21,12.80
2015,09,24,09,22,12.80
2015,09,24,09,23,12.80
2015,09,24,09,24,12.80
2015,09,24,09,25,12.80
2015,09,24,09,26,12.80
2015,09,24,09,27,12.80
2015,09,24,09,28,12.80
2015,09,24,09,29,12.80
2015,09,24,09,30,12.90
2015,09,24,09,31,12.90
2015,09,24,09,32,12.90
2015,09,24,09,33,12.90
2015,09,24,09,34,12.90
2015,09,24,09,35,12.90
2015,09,24,09,36,12.90
2015,09,24,09,37,12.90
2015,09,24,09,38,13.00
2015,09,24,09,39,13.00
2015,09,24,09,40,13.00
2015,09,24,09,41,13.00
2015,09,24,09,42,13.00
2015,09,24,09,43,13.10
2015,09,24,09,44,13.10
2015,09,24,09,45,13.10
2015,09,24,09,46,13.10
2015,09,24,09,47,13.10
2015,09,24,09,48,13.10
2015,09,24,09,49,13.20
2015,09,24,09,50,13.20
2015,09,24,09,51,13.20
2015,09,24,09,52,13.30
2015,09,24,09,53,13.30
2015,09,24,09,54,13.30
2015,09,24,09,55,13.30
2015,09,24,09,56,13.30
2015,09,24,09,57,13.40
2015,09,24,09,58,13.40
2015,09,24,09,59,13.40
2015,09,24,10,00,13.40
2015,09,24,10,01,13.50
2015,09,24,10,02,13.50
2015,09,24,10,03,13.50
2015,09,24,10,04,13.50
2015,09,24,10,05,13.60
2015,09,24,10,06,13.60
2015,09,24,10,07,13.60
2015,09,24,10,08,13.60
2015,09,24,10,09,13.70
2015,09,24,10,10,13.70
2015,09,24,10,11,13.70
2015,09,24,10,12,13.80
2015,09,24,10,13,13.80
2015,09,24,10,14,13.90
2015,09,24,10,15,13.90
2015,09,24,10,16,13.90
2015,09,24,10,17,13.90
2015,09,24,10,18,13.90
2015,09,24,10,19,13.90
2015,09,24,10,20,13.90
2015,09,24,10,21,13.90
2015,09,24,10,22,13.90
2015,09,24,10,23,13.90
2015,09,24,10,24,14.00
2015,09,24,10,25,14.00
2015,09,24,10,26,14.10
2015,09,24,10,27,14.10
2015,09,24,10,28,14.20
2015,09,24,10,29,14.20
2015,09,24,10,30,14.20
2015,09,24,10,31,14.30
2015,09,24,10,32,14.30
2015,09,24,10,33,14.40
2015,09,24,10,34,14.50
2015,09,24,10,35,14.50
2015,09,24,10,36,14.50
2015,09,24,10,37,14.50
2015,09,24,10,38,14.50
2015,09,24,10,39,14.50
2015,09,24,10,40,14.50
2015,09,24,10,41,14.50
2015,09,24,10,42,14.50
2015,09,24,10,43,14.50
2015,09,24,10,44,14.50
2015,09,24,10,45,14.60
2015,09,24,10,46,14.60
2015,09,24,10,47,14.60
2015,09,24,10,48,14.60
2015,09,24,10,49,14.70
2015,09,24,10,50,14.70
2015,09,24,10,51,14.80
2015,09,24,10,52,14.80
2015,09,24,10,53,14.90
2015,09,24,10,54,14.90
2015,09,24,10,55,15.00
2015,09,24,10,56,15.10
2015,09,24,10,57,15.10
2015,09,24,10,58,15.10
2015,09,24,10,59,15.20
2015,09,24,11,00,15.30
2015,09,24,11,01,15.30
2015,09,24,11,02,15.40
2015,09,24,11,03,15.50
2015,09,24,11,04,15.50
2015,09,24,11,05,15.60
2015,09,24,11,06,15.60
2015,09,24,11,07,15.60
2015,09,24,11,08,15.60
2015,09,24,11,09,15.60
2015,09,24,11,10,15.60
2015,09,24,11,11,15.70
2015,09,24,11,12,15.70
2015,09,24,11,13,15.80
2015,09,24,11,14,15.80
2015,09,24,11,15,15.70
2015,09,24,11,16,15.80
2015,09,24,11,17,15.80
2015,09,24,11,18,15.70
2015,09,24,11,19,15.60
2015,09,24,11,20,15.60
2015,09,24,11,21,15.60
2015,09,24,11,22,15.60
2015,09,24,11,23,15.60
2015,09,24,11,24,15.60
2015,09,24,11,25,15.60
2015,09,24,11,26,15.60
2015,09,24,11,27,15.60
2015,09,24,11,28,15.60
2015,09,24,11,29,15.60
2015,09,24,11,30,15.60
2015,09,24,11,31,15.60
2015,09,24,11,32,15.60
2015,09,24,11,33,15.70
2015,09,24,11,34,15.70
2015,09,24,11,35,15.80
2015,09,24,11,36,15.80
2015,09,24,11,37,15.80
2015,09,24,11,38,15.80
2015,09,24,11,39,15.80
2015,09,24,11,40,15.80
2015,09,24,11,41,15.80
2015,09,24,11,42,15.80
2015,09,24,11,43,15.80
2015,09,24,11,44,15.80
2015,09,24,11,45,15.80
2015,09,24,11,46,15.80
2015,09,24,11,47,15.90
2015,09,24,11,48,15.90
2015,09,24,11,49,16.10
2015,09,24,11,50,16.10
2015,09,24,11,51,16.10
2015,09,24,11,52,16.20
2015,09,24,11,53,16.20
2015,09,24,11,54,16.20
2015,09,24,11,55,16.20
2015,09,24,11,56,16.20
2015,09,24,11,57,16.20
2015,09,24,11,58,16.20
2015,09,24,11,59,16.20
2015,09,24,12,00,16.20
2015,09,24,12,01,16.20
2015,09,24,12,02,16.20
2015,09,24,12,03,16.20
2015,09,24,12,04,16.20
2015,09,24,12,05,16.20
2015,09,24,12,06,16.30
2015,09,24,12,07,16.40
2015,09,24,12,08,16.40
2015,09,24,12,09,16.40
2015,09,24,12,10,16.40
2015,09,24,12,11,16.40
2015,09,24,12,12,16.50
2015,09,24,12,13,16.60
2015,09,24,12,14,16.50
2015,09,24,12,15,16.40
2015,09,24,12,16,16.40
2015,09,24,12,17,16.40
2015,09,24,12,18,16.40
2015,09,24,12,19,16.40
2015,09,24,12,20,16.60
2015,09,24,12,21,16.70
2015,09,24,12,22,16.80
2015,09,24,12,23,16.90
2015,09,24,12,24,17.00
2015,09,24,12,25,17.00
2015,09,24,12,26,17.10
2015,09,24,12,27,17.20
2015,09,24,12,28,17.20
2015,09,24,12,29,17.30
2015,09,24,12,30,17.30
2015,09,24,12,31,17.30
2015,09,24,12,32,17.30
2015,09,24,12,33,17.30
2015,09,24,12,34,17.30
2015,09,24,12,35,17.30
2015,09,24,12,36,17.30
2015,09,24,12,37,17.30
2015,09,24,12,38,17.30
2015,09,24,12,39,17.30
2015,09,24,12,40,17.30
2015,09,24,12,41,17.30
2015,09,24,12,42,17.40
2015,09,24,12,43,17.40
2015,09,24,12,44,17.40
2015,09,24,12,45,17.30
2015,09,24,12,46,17.30
2015,09,24,12,47,17.10
2015,09,24,12,48,17.10
2015,09,24,12,49,16.90
2015,09,24,12,50,16.80
2015,09,24,12,51,16.70
2015,09,24,12,52,16.70
2015,09,24,12,53,16.70
2015,09,24,12,54,16.60
2015,09,24,12,55,16.60
2015,09,24,12,56,16.50
2015,09,24,12,57,16.40
2015,09,24,12,58,16.40
2015,09,24,12,59,16.40
2015,09,24,13,00,16.40
2015,09,24,13,01,16.30
2015,09,24,13,02,16.20
2015,09,24,13,03,16.10
2015,09,24,13,04,16.10
2015,09,24,13,05,15.90
2015,09,24,13,06,15.80
2015,09,24,13,07,15.80
2015,09,24,13,08,15.80
2015,09,24,13,09,15.80
2015,09,24,13,10,15.80
2015,09,24,13,11,15.80
2015,09,24,13,12,15.70
2015,09,24,13,13,15.80
2015,09,24,13,14,15.80
2015,09,24,13,15,15.70
2015,09,24,13,16,15.70
2015,09,24,13,17,15.80
2015,09,24,13,18,15.80
2015,09,24,13,19,15.70
2015,09,24,13,20,15.70
2015,09,24,13,21,15.60
2015,09,24,13,22,15.50
2015,09,24,13,23,15.50
2015,09,24,13,24,15.50
2015,09,24,13,25,15.50
2015,09,24,13,26,15.40
2015,09,24,13,27,15.40
2015,09,24,13,28,15.40
2015,09,24,13,29,15.30
2015,09,24,13,30,15.30
2015,09,24,13,31,15.30
2015,09,24,13,32,15.30
2015,09,24,13,33,15.30
2015,09,24,13,34,15.30
2015,09,24,13,35,15.30
2015,09,24,13,36,15.30
2015,09,24,13,37,15.30
2015,09,24,13,38,15.30
2015,09,24,13,39,15.30
2015,09,24,13,40,15.30
2015,09,24,13,41,15.30
2015,09,24,13,42,15.30
2015,09,24,13,43,15.30
2015,09,24,13,44,15.30
2015,09,24,13,45,15.30
2015,09,24,13,46,15.30
2015,09,24,13,47,15.30
2015,09,24,13,48,15.30
2015,09,24,13,49,15.30
2015,09,24,13,50,15.30
2015,09,24,13,51,15.30
2015,09,24,13,52,15.30
2015,09,24,13,53,15.30
2015,09,24,13,54,15.30
2015,09,24,13,55,15.30
2015,09,24,13,56,15.30
2015,09,24,13,57,15.30
2015,09,24,13,58,15.30
2015,09,24,13,59,15.30
2015,09,24,14,00,15.30
2015,09,24,14,01,15.30
2015,09,24,14,02,15.30
2015,09,24,14,03,15.40
2015,09,24,14,04,15.40
2015,09,24,14,05,15.50
2015,09,24,14,06,15.50
2015,09,24,14,07,15.50
2015,09,24,14,08,15.60
2015,09,24,14,09,15.50
2015,09,24,14,10,15.60
2015,09,24,14,11,15.60
2015,09,24,14,12,15.60
2015,09,24,14,13,15.70
2015,09,24,14,14,15.70
2015,09,24,14,15,15.70
2015,09,24,14,16,15.70
2015,09,24,14,17,15.70
2015,09,24,14,18,15.70
2015,09,24,14,19,15.70
2015,09,24,14,20,15.70
2015,09,24,14,21,15.70
2015,09,24,14,22,15.70
2015,09,24,14,23,15.80
2015,09,24,14,24,15.80
2015,09,24,14,25,15.80
2015,09,24,14,26,15.90
2015,09,24,14,27,15.90
2015,09,24,14,28,15.90
2015,09,24,14,29,16.10
2015,09,24,14,30,16.10
2015,09,24,14,31,16.10
2015,09,24,14,32,16.20
2015,09,24,14,33,16.20
2015,09,24,14,34,16.20
2015,09,24,14,35,16.30
2015,09,24,14,36,16.30
2015,09,24,14,37,16.40
2015,09,24,14,38,16.40
2015,09,24,14,39,16.50
2015,09,24,14,40,16.60
2015,09,24,14,41,16.60
2015,09,24,14,42,16.60
2015,09,24,14,43,16.60
2015,09,24,14,44,16.60
2015,09,24,14,45,16.60
2015,09,24,14,46,16.60
2015,09,24,14,47,16.50
2015,09,24,14,48,16.40
2015,09,24,14,49,16.40
2015,09,24,14,50,16.40
2015,09,24,14,51,16.40
2015,09,24,14,52,16.50
2015,09,24,14,53,16.60
2015,09,24,14,54,16.60
2015,09,24,14,55,16.60
2015,09,24,14,56,16.70
2015,09,24,14,57,16.70
2015,09,24,14,58,16.60
2015,09,24,14,59,16.60
2015,09,24,15,00,16.60
2015,09,24,15,01,16.50
2015,09,24,15,02,16.40
2015,09,24,15,03,16.40
2015,09,24,15,04,16.40
2015,09,24,15,05,16.60
2015,09,24,15,06,16.60
2015,09,24,15,07,16.60
2015,09,24,15,08,16.60
2015,09,24,15,09,16.60
2015,09,24,15,10,16.60
2015,09,24,15,11,16.60
2015,09,24,15,12,16.50
2015,09,24,15,13,16.40
2015,09,24,15,14,16.40
2015,09,24,15,15,16.40
2015,09,24,15,16,16.40
2015,09,24,15,17,16.40
2015,09,24,15,18,16.30
2015,09,24,15,19,16.30
2015,09,24,15,20,16.30
2015,09,24,15,21,16.20
2015,09,24,15,22,16.20
2015,09,24,15,23,16.20
2015,09,24,15,24,16.20
2015,09,24,15,25,16.20
2015,09,24,15,26,16.20
2015,09,24,15,27,16.10
2015,09,24,15,28,16.10
2015,09,24,15,29,16.10
2015,09,24,15,30,16.10
2015,09,24,15,31,16.10
2015,09,24,15,32,16.10
2015,09,24,15,33,16.10
2015,09,24,15,34,16.00
2015,09,24,15,35,15.90
2015,09,24,15,36,15.90
2015,09,24,15,37,15.80
2015,09,24,15,38,15.80
2015,09,24,15,39,15.80
2015,09,24,15,40,15.70
2015,09,24,15,41,15.70
2015,09,24,15,42,15.70
2015,09,24,15,43,15.70
2015,09,24,15,44,15.60
2015,09,24,15,45,15.60
2015,09,24,15,46,15.60
2015,09,24,15,47,15.60
2015,09,24,15,48,15.50
2015,09,24,15,49,15.50
2015,09,24,15,50,15.50
2015,09,24,15,51,15.50
2015,09,24,15,52,15.60
2015,09,24,15,53,15.60
2015,09,24,15,54,15.60
2015,09,24,15,55,15.60
2015,09,24,15,56,15.60
2015,09,24,15,57,15.60
2015,09,24,15,58,15.60
2015,09,24,15,59,15.60
2015,09,24,16,00,15.50
2015,09,24,16,01,15.60
2015,09,24,16,02,15.60
2015,09,24,16,03,15.50
2015,09,24,16,04,15.50
2015,09,24,16,05,15.50
2015,09,24,16,06,15.50
2015,09,24,16,07,15.60
2015,09,24,16,08,15.60
2015,09,24,16,09,15.60
2015,09,24,16,10,15.50
2015,09,24,16,11,15.50
2015,09,24,16,12,15.50
2015,09,24,16,13,15.50
2015,09,24,16,14,15.50
2015,09,24,16,15,15.50
2015,09,24,16,16,15.60
2015,09,24,16,17,15.60
2015,09,24,16,18,15.60
2015,09,24,16,19,15.60
2015,09,24,16,20,15.60
2015,09,24,16,21,15.50
2015,09,24,16,22,15.50
2015,09,24,16,23,15.40
2015,09,24,16,24,15.40
2015,09,24,16,25,15.40
2015,09,24,16,26,15.40
2015,09,24,16,27,15.40
2015,09,24,16,28,15.30
2015,09,24,16,29,15.30
2015,09,24,16,30,15.30
2015,09,24,16,31,15.30
2015,09,24,16,32,15.30
2015,09,24,16,33,15.20
2015,09,24,16,34,15.20
2015,09,24,16,35,15.20
2015,09,24,16,36,15.20
2015,09,24,16,37,15.10
2015,09,24,16,38,15.10
2015,09,24,16,39,15.10
2015,09,24,16,40,15.10
2015,09,24,16,41,15.10
2015,09,24,16,42,15.10
2015,09,24,16,43,15.00
2015,09,24,16,44,15.00
2015,09,24,16,45,15.00
2015,09,24,16,46,15.00
2015,09,24,16,47,15.00
2015,09,24,16,48,15.00
2015,09,24,16,49,15.00
2015,09,24,16,50,15.00
2015,09,24,16,51,15.10
2015,09,24,16,52,15.10
2015,09,24,16,53,15.20
2015,09,24,16,54,15.20
2015,09,24,16,55,15.10
2015,09,24,16,56,15.10
2015,09,24,16,57,15.10
2015,09,24,16,58,15.10
2015,09,24,16,59,15.10
2015,09,24,17,00,15.10
2015,09,24,17,01,15.10
2015,09,24,17,02,15.10
2015,09,24,17,03,15.10
2015,09,24,17,04,15.10
2015,09,24,17,05,15.10
2015,09,24,17,06,15.10
2015,09,24,17,07,15.10
2015,09,24,17,08,15.10
2015,09,24,17,09,15.10
2015,09,24,17,10,15.10
2015,09,24,17,11,15.10
2015,09,24,17,12,15.10
2015,09,24,17,13,15.10
2015,09,24,17,14,15.10
2015,09,24,17,15,15.00
2015,09,24,17,16,15.00
2015,09,24,17,17,15.00
2015,09,24,17,18,15.00
2015,09,24,17,19,15.00